Location: Plainartige
(45.6866°N, 1.7993°E)
Time: 08:05:14
(UTC+00:00)

CZ-2C R/B - Pass Details

Date: 03 March 2021
Orbit: 784 x 871 km, 98.2° (Epoch: 10 April)

Event Time Altitude Azimuth Distance (km) Brightness Sun altitude
Rises 19:41:19 0° 8° (N) 3,434 5.9 -21.4°
Reaches altitude 10° 19:43:48 10° 3° (N) 2,482 5.2 -21.8°
Maximum altitude 19:49:03 48° 291° (WNW) 1,080 3.6 -22.7°
Drops below altitude 10° 19:54:10 10° 218° (SW) 2,410 5.3 -23.6°
Sets 19:56:32 0° 213° (SSW) 3,325 6.0 -24.0°
